TimeEDT,TemperatureF,Dew PointF,Humidity,Sea Level PressureIn,VisibilityMPH,Wind Direction,Wind SpeedMPH,Gust SpeedMPH,PrecipitationIn,Events,Conditions,WindDirDegrees,DateUTC
12:14 AM,38.3,30.6,74,30.15,10.0,WNW,9.2,-,N/A,,Scattered Clouds,300,2012-10-12 04:14:00
12:35 AM,38.3,30.2,73,30.16,10.0,WNW,5.8,-,N/A,,Clear,300,2012-10-12 04:35:00
12:55 AM,38.3,30.2,73,30.17,10.0,NW,6.9,-,N/A,,Scattered Clouds,310,2012-10-12 04:55:00
1:14 AM,38.3,29.8,72,30.17,10.0,WNW,4.6,-,N/A,,Scattered Clouds,290,2012-10-12 05:14:00
1:35 AM,38.3,30.2,73,30.19,10.0,WNW,6.9,-,N/A,,Scattered Clouds,300,2012-10-12 05:35:00
2:14 AM,38.3,30.0,72,30.21,10.0,North,4.6,-,N/A,,Scattered Clouds,350,2012-10-12 06:14:00
2:35 AM,37.4,29.8,74,30.22,10.0,NNW,3.5,-,N/A,,Clear,340,2012-10-12 06:35:00
2:55 AM,36.1,29.3,76,30.23,10.0,Calm,Calm,-,N/A,,Clear,0,2012-10-12 06:55:00
3:15 AM,35.8,29.3,77,30.24,10.0,Calm,Calm,-,N/A,,Clear,0,2012-10-12 07:15:00
3:35 AM,35.8,29.8,79,30.24,10.0,Calm,Calm,-,N/A,,Clear,0,2012-10-12 07:35:00
3:55 AM,35.8,30.2,80,30.25,10.0,NNE,3.5,-,N/A,,Clear,20,2012-10-12 07:55:00
4:15 AM,35.6,30.4,81,30.26,10.0,Calm,Calm,-,N/A,,Clear,0,2012-10-12 08:15:00
4:35 AM,33.3,29.5,86,30.27,10.0,NNE,3.5,-,N/A,,Clear,20,2012-10-12 08:35:00
4:55 AM,33.3,30.0,88,30.28,10.0,North,3.5,-,N/A,,Clear,350,2012-10-12 08:55:00
5:15 AM,33.3,30.2,89,30.29,10.0,North,3.5,-,N/A,,Clear,360,2012-10-12 09:15:00
5:35 AM,31.3,28.0,88,30.30,10.0,NNW,3.5,-,N/A,,Clear,340,2012-10-12 09:35:00
5:55 AM,31.3,28.4,89,30.30,10.0,NNW,4.6,-,N/A,,Clear,340,2012-10-12 09:55:00
6:15 AM,31.8,28.9,89,30.31,10.0,North,4.6,-,N/A,,Clear,360,2012-10-12 10:15:00
6:55 AM,28.4,25.7,90,30.33,10.0,NE,3.5,-,N/A,,Clear,40,2012-10-12 10:55:00
7:15 AM,28.4,25.7,90,30.34,10.0,NE,4.6,-,N/A,,Clear,40,2012-10-12 11:15:00
7:35 AM,28.9,26.2,90,30.34,10.0,NE,4.6,-,N/A,,Scattered Clouds,40,2012-10-12 11:35:00
7:54 AM,29.5,26.8,90,30.34,10.0,ENE,3.5,-,N/A,,Mostly Cloudy,60,2012-10-12 11:54:00
8:15 AM,30.0,27.3,90,30.35,10.0,ENE,4.6,-,N/A,,Scattered Clouds,60,2012-10-12 12:15:00
8:35 AM,31.1,28.2,89,30.37,10.0,Calm,Calm,-,N/A,,Clear,0,2012-10-12 12:35:00
8:54 AM,33.3,30.7,90,30.37,10.0,Calm,Calm,-,N/A,,Clear,0,2012-10-12 12:54:00
9:15 AM,33.4,30.6,89,30.39,10.0,Calm,Calm,-,N/A,,Clear,0,2012-10-12 13:15:00
9:35 AM,36.0,32.0,86,30.39,10.0,ENE,3.5,-,N/A,,Clear,70,2012-10-12 13:35:00
10:15 AM,39.7,31.1,71,30.40,10.0,Calm,Calm,-,N/A,,Scattered Clouds,0,2012-10-12 14:15:00
10:35 AM,41.5,28.2,59,30.39,10.0,Calm,Calm,-,N/A,,Clear,0,2012-10-12 14:35:00
10:54 AM,42.4,26.8,54,30.40,10.0,North,3.5,-,N/A,,Clear,360,2012-10-12 14:54:00
11:15 AM,43.7,27.1,52,30.40,10.0,Calm,Calm,-,N/A,,Scattered Clouds,0,2012-10-12 15:15:00
11:35 AM,42.8,28.0,56,30.40,10.0,WSW,6.9,-,N/A,,Scattered Clouds,240,2012-10-12 15:35:00
11:55 AM,45.1,29.3,54,30.39,10.0,WSW,5.8,-,N/A,,Mostly Cloudy,240,2012-10-12 15:55:00
12:15 PM,43.3,28.2,55,30.40,10.0,West,4.6,-,N/A,,Overcast,270,2012-10-12 16:15:00
12:35 PM,46.0,31.5,57,30.40,10.0,SSW,4.6,-,N/A,,Scattered Clouds,210,2012-10-12 16:35:00
12:55 PM,44.6,29.8,56,30.41,10.0,SW,4.6,-,N/A,,Mostly Cloudy,220,2012-10-12 16:55:00
1:15 PM,47.5,27.7,46,30.40,10.0,WSW,8.1,-,N/A,,Overcast,240,2012-10-12 17:15:00
1:35 PM,48.4,28.6,46,30.39,10.0,SW,6.9,-,N/A,,Overcast,230,2012-10-12 17:35:00
1:55 PM,47.8,28.4,47,30.39,10.0,SW,9.2,-,N/A,,Mostly Cloudy,230,2012-10-12 17:55:00
2:35 PM,48.4,24.8,40,30.38,10.0,WSW,8.1,-,N/A,,Overcast,240,2012-10-12 18:35:00
2:55 PM,48.4,23.2,37,30.38,10.0,WSW,6.9,-,N/A,,Scattered Clouds,250,2012-10-12 18:55:00
3:15 PM,48.4,23.4,37,30.38,10.0,WSW,4.6,-,N/A,,Clear,250,2012-10-12 19:15:00
3:35 PM,48.4,26.1,42,30.38,10.0,West,5.8,-,N/A,,Clear,260,2012-10-12 19:35:00
3:55 PM,48.4,28.8,47,30.37,10.0,West,5.8,-,N/A,,Clear,260,2012-10-12 19:55:00
4:15 PM,48.4,27.9,45,30.36,10.0,SW,6.9,-,N/A,,Clear,230,2012-10-12 20:15:00
4:35 PM,47.1,25.2,42,30.36,10.0,WSW,6.9,-,N/A,,Clear,250,2012-10-12 20:35:00
4:55 PM,48.4,26.2,42,30.35,10.0,West,6.9,-,N/A,,Scattered Clouds,270,2012-10-12 20:55:00
5:15 PM,45.9,25.3,45,30.36,10.0,West,5.8,-,N/A,,Scattered Clouds,270,2012-10-12 21:15:00
5:35 PM,48.0,27.9,46,30.36,10.0,West,5.8,-,N/A,,Mostly Cloudy,260,2012-10-12 21:35:00
6:15 PM,45.9,26.8,47,30.35,10.0,WNW,4.6,-,N/A,,Scattered Clouds,290,2012-10-12 22:15:00
6:55 PM,43.2,26.4,52,30.35,10.0,West,3.5,-,N/A,,Scattered Clouds,280,2012-10-12 22:55:00
7:15 PM,43.2,26.2,51,30.35,10.0,West,3.5,-,N/A,,Scattered Clouds,260,2012-10-12 23:15:00
7:34 PM,43.2,26.4,52,30.34,10.0,Calm,Calm,-,N/A,,Scattered Clouds,0,2012-10-12 23:34:00
7:55 PM,43.3,27.1,53,30.33,10.0,SW,3.5,-,N/A,,Clear,220,2012-10-12 23:55:00
8:15 PM,42.8,27.3,54,30.33,10.0,SW,5.8,-,N/A,,Clear,230,2012-10-13 00:15:00
8:34 PM,41.2,27.5,58,30.33,10.0,Calm,Calm,-,N/A,,Clear,0,2012-10-13 00:34:00
8:55 PM,38.3,29.3,70,30.33,10.0,Calm,Calm,-,N/A,,Clear,0,2012-10-13 00:55:00
9:15 PM,38.3,29.3,70,30.33,10.0,Calm,Calm,-,N/A,,Clear,0,2012-10-13 01:15:00
9:34 PM,36.0,29.1,76,30.32,10.0,NE,3.5,-,N/A,,Clear,50,2012-10-13 01:34:00
10:15 PM,36.0,29.8,78,30.32,10.0,ENE,4.6,-,N/A,,Clear,60,2012-10-13 02:15:00
10:34 PM,36.0,29.8,78,30.31,10.0,ENE,4.6,-,N/A,,Clear,70,2012-10-13 02:34:00
10:55 PM,36.7,29.8,76,30.31,10.0,ENE,5.8,-,N/A,,Clear,60,2012-10-13 02:55:00
11:15 PM,37.0,30.2,76,30.32,10.0,NE,4.6,-,N/A,,Clear,50,2012-10-13 03:15:00
11:55 PM,36.5,29.3,75,30.31,10.0,NE,3.5,-,N/A,,Clear,50,2012-10-13 03:55:00